Weather History for 07684 - September, 2013

Change the Weather History Date:

Tuesday, September 17, 2013

  Actual Average Record
Temperature  
Mean Temperature 68 °F -  
Max Temperature 78 °F 70 °F - ()
Min Temperature 57 °F 58 °F - ()
Cooling Degree Days 2    
Growing Degree Days 18 (Base 50)    
Moisture  
Dew Point 43 °F    
Average Humidity 40    
Maximum Humidity 59    
Minimum Humidity 23    
Precipitation  
Precipitation 0.00 in - - ()
Sea Level Pressure  
Sea Level Pressure 29.60 in    
Wind  
Wind Speed 12 mph ()    
Max Wind Speed 23 mph    
Max Gust Speed 43 mph    
Visibility 6.2 miles    
Events      
T = Trace of Precipitation, MM = Missing Value Source: Averaged Metar Reports

Daily Weather History Graph

Daily Weather History Graph

Search for Another Location

Airport or City:

Trip Planner

Search our weather history database for the weather conditions in past years. The results will help you decide how hot, cold, wet, or windy it might be!

Date:

Astronomy

Sep. 17, 2013 Rise Set
Actual Time 7:13 AM CEST 7:38 PM CEST
Civil Twilight 6:45 AM CEST 8:07 PM CEST
Nautical Twilight 6:11 AM CEST 8:41 PM CEST
Astronomical Twilight 5:36 AM CEST 9:15 PM CEST
Moon 6:17 PM CEST (9/17) 4:46 AM CEST (9/17)
Length of Visible Light 13h 22m
Length of Day
12h 24m
Waxing Gibbous, 94% of the Moon is Illuminated
Sep 17
Waxing Gibbous
Sep 19
Full
Sep 27
Last Quarter
Oct 5
New
Oct 12
First Quarter

Hourly Weather History & Observations

Time (CEST) Temp. Dew Point Humidity Pressure Visibility Wind Dir Wind Speed Gust Speed Precip Events Conditions
12:00 AM 69.8 °F 48.2 °F 46% 29.62 in 6.2 mi West 16.1 mph - N/A   Unknown
12:30 AM 68.0 °F 50.0 °F 52% 29.62 in 6.2 mi West 12.7 mph - N/A   Unknown
1:00 AM 69.8 °F 48.2 °F 46% 29.59 in 6.2 mi West 17.3 mph - N/A   Unknown
1:30 AM 69.8 °F 48.2 °F 46% 29.59 in 6.2 mi West 17.3 mph - N/A   Unknown
2:00 AM 68.0 °F 48.2 °F 49% 29.59 in 6.2 mi West 13.8 mph 25.3 mph N/A   Unknown
2:30 AM 66.2 °F 48.2 °F 52% 29.56 in 6.2 mi West 15.0 mph 27.6 mph N/A   Unknown
3:00 AM 66.2 °F 48.2 °F 52% 29.56 in 6.2 mi WSW 15.0 mph - N/A   Unknown
3:30 AM 64.4 °F 48.2 °F 56% 29.53 in 6.2 mi WSW 16.1 mph - N/A   Unknown
4:00 AM 66.2 °F 44.6 °F 46% 29.53 in 6.2 mi WSW 16.1 mph - N/A   Unknown
4:30 AM 66.2 °F 39.2 °F 37% 29.53 in 6.2 mi WSW 10.4 mph - N/A   Unknown
5:00 AM 66.2 °F 35.6 °F 32% 29.53 in 6.2 mi West 11.5 mph - N/A   Unknown
5:30 AM 64.4 °F 37.4 °F 37% 29.53 in 6.2 mi WSW 15.0 mph - N/A   Unknown
6:00 AM 64.4 °F 37.4 °F 37% 29.56 in 6.2 mi WSW 16.1 mph - N/A   Unknown
6:30 AM 64.4 °F 35.6 °F 34% 29.50 in 6.2 mi WSW 20.7 mph - N/A   Unknown
7:00 AM 64.4 °F 35.6 °F 34% 29.53 in 6.2 mi West 17.3 mph 31.1 mph N/A   Unknown
7:30 AM 62.6 °F 37.4 °F 39% 29.53 in 6.2 mi West 20.7 mph 32.2 mph N/A   Unknown
8:00 AM 64.4 °F 37.4 °F 37% 29.53 in 6.2 mi West 23.0 mph 35.7 mph N/A   Unknown
8:30 AM 64.4 °F 37.4 °F 37% 29.53 in 6.2 mi WNW 23.0 mph 42.6 mph N/A   Unknown
9:00 AM 64.4 °F 39.2 °F 40% 29.56 in 6.2 mi WNW 20.7 mph 41.4 mph N/A   Unknown
9:30 AM 66.2 °F 37.4 °F 35% 29.56 in 6.2 mi WNW 20.7 mph 39.1 mph N/A   Unknown
10:00 AM 68.0 °F 37.4 °F 33% 29.59 in 6.2 mi WNW 16.1 mph 35.7 mph N/A   Unknown
10:30 AM 68.0 °F 37.4 °F 33% 29.59 in 6.2 mi WNW 17.3 mph 28.8 mph N/A   Unknown
11:00 AM 69.8 °F 37.4 °F 31% 29.59 in 6.2 mi WNW 16.1 mph 29.9 mph N/A   Unknown
11:30 AM 71.6 °F 39.2 °F 31% 29.62 in 6.2 mi Variable 11.5 mph 24.2 mph N/A   Unknown
12:00 PM 73.4 °F 39.2 °F 29% 29.62 in 6.2 mi West 12.7 mph - N/A   Unknown
12:30 PM 75.2 °F 41.0 °F 29% 29.62 in 6.2 mi West 11.5 mph - N/A   Unknown
1:00 PM 75.2 °F 39.2 °F 27% 29.62 in 6.2 mi WSW 12.7 mph - N/A   Unknown
1:30 PM 77.0 °F 39.2 °F 26% 29.62 in 6.2 mi West 11.5 mph - N/A   Unknown
2:00 PM 77.0 °F 41.0 °F 28% 29.62 in 6.2 mi West 6.9 mph - N/A   Unknown
2:30 PM 77.0 °F 44.6 °F 32% 29.62 in 6.2 mi ESE 8.1 mph - N/A   Unknown
3:00 PM 75.2 °F 50.0 °F 41% 29.62 in 6.2 mi SE 9.2 mph - N/A   Unknown
3:30 PM 75.2 °F 48.2 °F 38% 29.62 in 6.2 mi SE 5.8 mph - N/A   Unknown
4:00 PM 78.8 °F 37.4 °F 23% 29.62 in 6.2 mi West 10.4 mph 23.0 mph N/A   Unknown
4:30 PM 78.8 °F 39.2 °F 24% 29.62 in 6.2 mi West 10.4 mph - N/A   Unknown
5:00 PM 78.8 °F 42.8 °F 28% 29.62 in 6.2 mi North 4.6 mph - N/A   Unknown
5:30 PM 78.8 °F 44.6 °F 30% 29.62 in 6.2 mi Variable 3.5 mph - N/A   Unknown
6:00 PM 77.0 °F 44.6 °F 32% 29.62 in 6.2 mi NE 4.6 mph - N/A   Unknown
6:30 PM 75.2 °F 44.6 °F 34% 29.62 in 6.2 mi Variable 6.9 mph - N/A   Unknown
7:00 PM 73.4 °F 48.2 °F 41% 29.65 in 6.2 mi South 4.6 mph - N/A   Unknown
7:30 PM 71.6 °F 51.8 °F 50% 29.65 in 6.2 mi Variable 3.5 mph - N/A   Unknown
8:00 PM 68.0 °F 48.2 °F 49% 29.65 in 6.2 mi Variable 2.3 mph - N/A   Unknown
8:30 PM 64.4 °F 46.4 °F 52% 29.68 in 6.2 mi Variable 2.3 mph - N/A   Unknown
9:00 PM 62.6 °F 44.6 °F 52% 29.68 in 6.2 mi North 3.5 mph - N/A   Unknown
9:30 PM 60.8 °F 44.6 °F 55% 29.68 in 6.2 mi Variable 3.5 mph - N/A   Unknown
10:00 PM 60.8 °F 44.6 °F 55% 29.71 in 6.2 mi North 3.5 mph - N/A   Unknown
10:30 PM 59.0 °F 44.6 °F 59% 29.71 in 6.2 mi North 3.5 mph - N/A   Unknown
11:00 PM 57.2 °F 42.8 °F 59% 29.71 in 6.2 mi Variable 2.3 mph - N/A   Unknown
11:30 PM 57.2 °F 42.8 °F 59% 29.74 in 6.2 mi Variable 2.3 mph - N/A   Unknown